Weather in Fominskoye

Russia / Yaroslavl Oblast     57°50′31″N   39°34′35″E
temp.,
°C
wind,
m/s
gust,
m/s
humid.,
%
clouds,
%
prec.,
mm/h
press.,
hPa
HPBL,
m
8 may, sat
sat800:00+5s3679100 0.0 1012101
03:00+4sse3107966 0.0 1012191
06:00+6sse41273100 0.0 1012332
09:00+11sse51263100 0.0 1011772
12:00+11sse61370100 0.1 10101519
15:00+9se71483100 2.2 10081482
18:00+8se71592100 8.1 10061378
21:00+8se61594100 14.3 10031300
9 may, sun
sun900:00+8se41197100 3.7 1000625
03:00+9s3798100 5.5 1000359
06:00+6wnw5997100 2.4 1001363
09:00+2nw71597100 3.4 1005653
12:00+3nw61497100 2.6 1010745
15:00+8nw71276100 2.8 10131446
18:00+9nw412616 0.0 10151663
21:00+4wnw24815 0.0 101968
10 may, mon
mon1000:00+3wnw311841 0.0 1022245
03:00+1wnw38840 0.0 1025154
06:00+3wnw25760 0.0 1027124
09:00+10w23475 0.0 1028644
12:00+13wsw23405 0.0 10281647
15:00+14wsw34395 0.0 10281934
18:00+13sw2357100 0.0 1029354
21:00+10ssw2268100 0.0 103045
11 may, tue
tue1100:00+7ssw22766 0.0 103135
03:00+6ssw22795 0.0 103120
06:00+8s23775 0.0 1032103
09:00+13s3457100 0.0 1032492
12:00+16s3451100 0.0 1032963
15:00+18se22505 0.0 10311030
18:00+17ese23615 0.0 1030562
21:00+11se23806 0.0 103043
12 may, wed
wed1200:00+9ese22825 0.0 103114
03:00+8se22815 0.0 103116
06:00+9e24780 0.0 1031132
09:00+15ese46590 0.0 1030507
12:00+18ese46480 0.0 1029903
15:00+20ese45470 0.0 10281072
18:00+19e36615 0.0 1027562
21:00+13e378014 0.0 1027120